When you browse on this site, cookies collect data to enhance your experience and personalize the content and advertising you see.
Visit our Privacy Policy to learn more. By continuing to use the site, you agree to this use of cookies and data.
  • In Lithuania
  • List of Countries
  • For 7 days
  • Water Temperature
  • Satellite Maps
  • Weather Map
  • Weather Widgets
  • user-avatar
    Login

    Hourly Weather Caracas

    Today, 18 November, Sunday

    Time Temperature Precipitation Wind Pressure Humidity
    00:00 +18°C° 0.1 mm 3 mps 649 mmHg 95%
    01:00 +17°C° 0.1 mm 3 mps 649 mmHg 95%
    02:00 +17°C° 0.1 mm 3 mps 648 mmHg 95%
    03:00 +17°C° 0 mm 3 mps 648 mmHg 95%
    04:00 +17°C° 0 mm 3 mps 648 mmHg 95%
    05:00 +17°C° 0 mm 3 mps 648 mmHg 95%
    06:00 +18°C° 0 mm 3 mps 649 mmHg 93%
    07:00 +18°C° 0 mm 3 mps 649 mmHg 91%
    08:00 +19°C° 0 mm 3 mps 650 mmHg 89%
    09:00 +20°C° 0 mm 3 mps 650 mmHg 79%
    10:00 +22°C° 0 mm 3 mps 651 mmHg 70%
    11:00 +25°C° 0 mm 3 mps 651 mmHg 60%
    12:00 +25°C° 0.2 mm 3 mps 651 mmHg 63%
    13:00 +25°C° 0.2 mm 4 mps 650 mmHg 67%
    14:00 +25°C° 0.2 mm 4 mps 649 mmHg 70%
    15:00 +23°C° 1.1 mm 4 mps 649 mmHg 75%
    16:00 +22°C° 1.1 mm 4 mps 648 mmHg 80%
    17:00 +21°C° 1.1 mm 4 mps 648 mmHg 84%
    18:00 +20°C° 0.3 mm 4 mps 648 mmHg 87%
    19:00 +19°C° 0.3 mm 4 mps 648 mmHg 90%
    20:00 +19°C° 0.3 mm 4 mps 649 mmHg 94%
    21:00 +18°C° 0.2 mm 4 mps 649 mmHg 94%
    22:00 +18°C° 0.2 mm 3 mps 649 mmHg 95%
    23:00 +18°C° 0.2 mm 3 mps 649 mmHg 95%

    Tomorrow, 19 November, Monday

    Time Temperature Precipitation Wind Pressure Humidity
    00:00 +18°C° 0.1 mm 3 mps 649 mmHg 95%
    01:00 +18°C° 0.1 mm 3 mps 649 mmHg 95%
    02:00 +18°C° 0.1 mm 3 mps 648 mmHg 95%
    03:00 +17°C° 0.1 mm 3 mps 648 mmHg 95%
    04:00 +17°C° 0.1 mm 3 mps 648 mmHg 95%
    05:00 +17°C° 0.1 mm 3 mps 648 mmHg 95%
    06:00 +18°C° 0 mm 3 mps 648 mmHg 94%
    07:00 +18°C° 0 mm 3 mps 649 mmHg 92%
    08:00 +19°C° 0 mm 3 mps 649 mmHg 90%
    09:00 +20°C° 0 mm 3 mps 650 mmHg 84%
    10:00 +22°C° 0 mm 3 mps 651 mmHg 78%
    11:00 +24°C° 0 mm 3 mps 651 mmHg 71%
    12:00 +24°C° 0.3 mm 3 mps 650 mmHg 71%
    13:00 +25°C° 0.3 mm 3 mps 650 mmHg 70%
    14:00 +25°C° 0.3 mm 3 mps 649 mmHg 69%
    15:00 +24°C° 0.3 mm 3 mps 649 mmHg 74%
    16:00 +22°C° 0.3 mm 3 mps 648 mmHg 78%
    17:00 +21°C° 0.3 mm 3 mps 648 mmHg 82%
    18:00 +20°C° 0.3 mm 3 mps 648 mmHg 86%
    19:00 +20°C° 0.3 mm 3 mps 648 mmHg 90%
    20:00 +19°C° 0.3 mm 3 mps 649 mmHg 94%
    21:00 +19°C° 0.3 mm 3 mps 649 mmHg 95%
    22:00 +18°C° 0.3 mm 3 mps 649 mmHg 95%
    23:00 +18°C° 0.3 mm 3 mps 649 mmHg 96%

    Day after tomorrow, 20 November, Tuesday

    Time Temperature Precipitation Wind Pressure Humidity
    00:00 +18°C° 0.2 mm 3 mps 649 mmHg 96%
    01:00 +18°C° 0.2 mm 3 mps 649 mmHg 96%
    02:00 +18°C° 0.2 mm 3 mps 649 mmHg 96%
    03:00 +18°C° 0.1 mm 3 mps 648 mmHg 96%
    04:00 +18°C° 0.1 mm 3 mps 648 mmHg 96%
    05:00 +18°C° 0.1 mm 3 mps 648 mmHg 96%
    06:00 +18°C° 0.1 mm 3 mps 649 mmHg 95%
    07:00 +18°C° 0.1 mm 3 mps 649 mmHg 93%
    08:00 +19°C° 0.1 mm 3 mps 650 mmHg 92%
    09:00 +20°C° 0 mm 3 mps 650 mmHg 85%
    10:00 +22°C° 0 mm 3 mps 651 mmHg 78%
    11:00 +24°C° 0 mm 3 mps 651 mmHg 71%
    12:00 +24°C° 0.7 mm 3 mps 651 mmHg 70%
    13:00 +25°C° 0.7 mm 3 mps 650 mmHg 70%
    14:00 +25°C° 0.7 mm 4 mps 649 mmHg 69%
    15:00 +23°C° 0.6 mm 4 mps 649 mmHg 73%
    16:00 +22°C° 0.6 mm 4 mps 648 mmHg 77%
    17:00 +22°C° 0.6 mm 4 mps 648 mmHg 81%
    18:00 +21°C° 0.3 mm 4 mps 648 mmHg 85%
    19:00 +20°C° 0.3 mm 3 mps 649 mmHg 90%
    20:00 +19°C° 0.3 mm 3 mps 649 mmHg 94%
    21:00 +19°C° 0.2 mm 3 mps 649 mmHg 94%
    22:00 +19°C° 0.2 mm 3 mps 649 mmHg 95%
    23:00 +18°C° 0.2 mm 3 mps 650 mmHg 96%

    21 November, Wednesday

    Time Temperature Precipitation Wind Pressure Humidity
    00:00 +18°C° 0.2 mm 3 mps 649 mmHg 96%
    01:00 +18°C° 0.2 mm 3 mps 649 mmHg 96%
    02:00 +18°C° 0.2 mm 3 mps 649 mmHg 96%
    03:00 +18°C° 0.1 mm 3 mps 649 mmHg 96%
    04:00 +18°C° 0.1 mm 3 mps 649 mmHg 96%
    05:00 +18°C° 0.1 mm 3 mps 648 mmHg 96%
    06:00 +18°C° 0.1 mm 3 mps 649 mmHg 95%
    07:00 +18°C° 0.1 mm 3 mps 650 mmHg 94%
    08:00 +19°C° 0.1 mm 3 mps 650 mmHg 93%
    09:00 +19°C° 0.1 mm 3 mps 650 mmHg 89%
    10:00 +20°C° 0.1 mm 3 mps 651 mmHg 85%
    11:00 +21°C° 0.1 mm 3 mps 651 mmHg 81%
    12:00 +22°C° 0.1 mm 3 mps 650 mmHg 77%
    13:00 +24°C° 0.1 mm 3 mps 650 mmHg 73%
    14:00 +24°C° 0.1 mm 3 mps 649 mmHg 69%
    15:00 +22°C° 0.2 mm 3 mps 649 mmHg 75%
    16:00 +22°C° 0.2 mm 3 mps 648 mmHg 80%
    17:00 +21°C° 0.2 mm 3 mps 648 mmHg 85%
    18:00 +20°C° 0.2 mm 3 mps 648 mmHg 88%
    19:00 +19°C° 0.2 mm 3 mps 648 mmHg 91%
    20:00 +19°C° 0.2 mm 3 mps 648 mmHg 94%
    21:00 +18°C° 0.3 mm 3 mps 649 mmHg 94%
    22:00 +18°C° 0.3 mm 3 mps 649 mmHg 95%
    23:00 +18°C° 0.3 mm 3 mps 649 mmHg 95%

    22 November, Thursday

    Time Temperature Precipitation Wind Pressure Humidity
    00:00 +18°C° 0.3 mm 3 mps 649 mmHg 95%
    01:00 +18°C° 0.3 mm 3 mps 648 mmHg 95%
    02:00 +18°C° 0.3 mm 3 mps 648 mmHg 96%
    03:00 +18°C° 0.1 mm 3 mps 648 mmHg 95%
    04:00 +17°C° 0.1 mm 3 mps 648 mmHg 95%
    05:00 +17°C° 0.1 mm 3 mps 648 mmHg 95%
    06:00 +18°C° 0.1 mm 3 mps 648 mmHg 94%
    07:00 +18°C° 0.1 mm 3 mps 649 mmHg 92%
    08:00 +18°C° 0.1 mm 3 mps 649 mmHg 91%
    09:00 +20°C° 0.1 mm 3 mps 650 mmHg 85%
    10:00 +21°C° 0.1 mm 3 mps 650 mmHg 79%
    11:00 +24°C° 0.1 mm 3 mps 650 mmHg 73%
    12:00 +24°C° 0 mm 3 mps 650 mmHg 69%
    13:00 +25°C° 0 mm 3 mps 649 mmHg 66%
    14:00 +25°C° 0 mm 3 mps 648 mmHg 62%
    15:00 +24°C° 0 mm 3 mps 648 mmHg 66%
    16:00 +24°C° 0 mm 3 mps 648 mmHg 71%
    17:00 +22°C° 0 mm 3 mps 647 mmHg 75%
    18:00 +20°C° 0 mm 3 mps 647 mmHg 81%
    19:00 +19°C° 0 mm 3 mps 648 mmHg 87%
    20:00 +18°C° 0 mm 2 mps 648 mmHg 92%
    21:00 +18°C° 0.1 mm 3 mps 648 mmHg 93%
    22:00 +18°C° 0.1 mm 3 mps 648 mmHg 94%
    23:00 +18°C° 0.1 mm 3 mps 648 mmHg 94%

    23 November, Friday

    Time Temperature Precipitation Wind Pressure Humidity
    00:00 +17°C° 0.1 mm 2 mps 648 mmHg 95%
    01:00 +17°C° 0.1 mm 2 mps 648 mmHg 95%
    02:00 +17°C° 0.1 mm 2 mps 647 mmHg 95%
    03:00 +17°C° 0.2 mm 2 mps 647 mmHg 95%
    04:00 +17°C° 0.2 mm 2 mps 647 mmHg 95%
    05:00 +17°C° 0.2 mm 2 mps 647 mmHg 95%
    06:00 +17°C° 0.2 mm 2 mps 648 mmHg 94%
    07:00 +18°C° 0.2 mm 2 mps 648 mmHg 94%
    08:00 +18°C° 0.2 mm 2 mps 649 mmHg 93%
    09:00 +20°C° 0 mm 2 mps 649 mmHg 85%
    10:00 +21°C° 0 mm 2 mps 649 mmHg 78%
    11:00 +23°C° 0 mm 2 mps 650 mmHg 71%
    12:00 +24°C° 0.3 mm 3 mps 649 mmHg 72%
    13:00 +24°C° 0.3 mm 3 mps 648 mmHg 73%
    14:00 +24°C° 0.3 mm 3 mps 648 mmHg 74%
    15:00 +22°C° 0.3 mm 3 mps 647 mmHg 77%
    16:00 +22°C° 0.3 mm 3 mps 647 mmHg 80%
    17:00 +21°C° 0.3 mm 2 mps 646 mmHg 82%
    18:00 +20°C° 0.1 mm 2 mps 647 mmHg 86%
    19:00 +19°C° 0.1 mm 2 mps 647 mmHg 90%
    20:00 +19°C° 0.1 mm 2 mps 647 mmHg 94%
    21:00 +18°C° 0.2 mm 2 mps 647 mmHg 95%
    22:00 +18°C° 0.2 mm 2 mps 648 mmHg 95%
    23:00 +18°C° 0.2 mm 2 mps 648 mmHg 96%
    Show more